Погода в Кранево

Болгария     43°20′27″N   28°03′24″E
темп.,
°C
ветер,
м/с
пор.,
м/с
влажн.,
%
обл.,
%
осадки,
мм/ч
давл.,
гПа
погр.,
м
13 мая, чт
чт1300:00+12вюв2385100 0.0 101067
03:00+12юв118496 0.0 100938
06:00+12вюв22864 0.1 100972
09:00+15ююв456879 0.1 1009490
12:00+15ююв24676 0.0 1009396
15:00+17юв3462100 0.0 1008474
18:00+16юв23684 0.0 1007340
21:00+12вюв22850 0.0 100719
14 мая, пт
пт1400:00+12ююв22885 0.0 100719
03:00+11зсз3388100 0.0 100850
06:00+11зсз349054 0.0 100971
09:00+17зсз35685 0.0 1010347
12:00+20юз34544 0.0 10111114
15:00+16ю468282 0.4 1011159
18:00+17ю3477100 0.7 1011225
21:00+13з337996 6.9 101330
15 мая, сб
сб1500:00+13з117866 0.0 101316
03:00+13з2281100 0.0 101321
06:00+13сз1182100 0.0 101210
09:00+16вюв117769 0.0 1013150
12:00+19вюв226845 0.0 1013487
15:00+18вюв337238 0.0 1012402
18:00+17в237748 0.0 1011229
21:00+14в2287100 0.0 101012
16 мая, вс
вс1600:00+14в2285100 0.0 101012
03:00+14сз1180100 0.0 101010
06:00+14ссв228174 0.0 101024
09:00+16всв3474100 0.0 1010243
12:00+18в3466100 0.0 1010452
15:00+19в446542 0.0 1010498
18:00+17всв347161 0.0 1009316
21:00+14зсз11828 0.0 100911
17 мая, пн
пн1700:00+13з228027 0.0 100913
03:00+13зсз227771 0.0 100927
06:00+13зсз5128842 0.0 1009236
09:00+18зсз57755 0.0 1010465
12:00+21з566113 0.0 10101116
15:00+23зюз465410 0.3 10101517
18:00+22з366156 0.0 10101122
21:00+17зюз22810 0.1 101118